Location: *
(0.7700°N, 162.7770°E)
Time: 22:40:17
(UTC+00:00)

Daily predictions for brighter satellites

Satellite Brightness Start Highest point End
(mag) Time Altitude Azimuth Time Altitude Azimuth Time Altitude Azimuth
Cosmos 2278 Rocket 3.8 16:34:55 10° SSE 16:45:41 - NE 16:39:07 31° ESE
Hubble Space Telescope 3.5 16:56:53 17° ESE 16:56:53 17° ESE 16:57:58 10° ESE
ARIANE 5 DEB (SYLDA) 4.4 17:05:13 31° ENE 17:05:13 31° ENE 17:07:05 10° ENE
CZ-3 R/B 3.3 16:26:27 10° WSW 17:06:41 88° NNW 17:14:56 10° ENE
Meteor 1-24 Rocket 3.8 17:14:33 69° NE 17:15:01 74° E 17:20:40 10° S
ATLAS 2A CENTAUR R/B 4.3 17:10:28 45° NW 17:15:56 74° NNE 17:48:10 10° ESE
GPS 2-15 Rocket1 3.7 17:22:12 54° SE 17:22:12 54° SE 17:25:54 10° ESE
Ariane H10-3 3.7 17:26:38 20° SE 17:26:38 20° SE 17:27:27 10° ESE
IRS-1C Rocket 4.0 17:26:12 78° SW 17:26:12 78° SW 17:31:09 10° SSW
Delta 7925 Rocket 3.8 17:27:49 64° WSW 17:28:23 68° SSW 17:35:28 10° SE
NOSS 3-1 (C) 3.5 17:26:45 10° SSW 17:32:11 63° ESE 17:37:37 10° NNE
Meteor 2-13 Rocket 4.3 17:27:19 10° S 17:33:29 79° W 17:38:08 18° N
Delta 142 3.9 17:34:17 53° NNE 17:34:17 53° NNE 17:38:22 10° ESE
Ariane H10-3 4.2 17:27:36 35° W 17:34:15 89° SSW 17:38:45 10° E
ARIANE 3 DEB 4.1 17:32:14 42° W 17:35:35 84° N 17:40:22 10° E
Cosmos 1709 Rocket 3.9 17:34:20 10° SSW 17:40:30 67° W 17:46:12 13° N
OAO 2 Rocket 3.3 17:42:25 61° WNW 17:42:45 63° NW 17:48:01 10° NE
USA 161 3.9 17:42:44 10° S 17:43:39 19° S 17:43:39 19° S
Cosmos 44 3.4 17:44:50 41° NNW 17:46:43 88° ENE 17:52:05 10° SSE
Cosmos 2297 4.5 17:41:43 10° S 17:47:19 54° ESE 17:52:52 10° NNE
Ariane H10 2.5 17:55:26 34° W 17:57:24 68° S 17:59:57 10° ESE
Delta 2 Rocket 4.3 17:56:51 24° NNE 17:57:32 26° NE 18:00:25 10° E
ISS -1.0 18:01:41 10° NNE 18:03:22 13° NE 18:05:03 10° E
IDEFIX/ARIANE 42P 2.5 18:02:27 10° N 18:07:42 85° WNW 18:12:57 10° SSW
Cosmos 1943 4.4 18:09:10 22° W 18:09:31 22° WSW 18:13:48 10° SSW
Meteor 1-21 Rocket 4.3 18:07:27 10° N 18:13:07 83° E 18:18:43 10° S
PAYLOAD A 3.7 18:09:10 10° N 18:13:48 69° WNW 18:18:29 10° SSW
GPS 2-12 Rocket1 3.3 18:12:16 15° WSW 18:15:59 68° SSE 18:20:40 10° ENE
GPS 2-14 Rocket1 3.1 18:13:26 16° WSW 18:16:34 62° SSE 18:20:40 10° ENE
Nadezhda 1 Rocket 4.5 18:13:15 13° NNW 18:18:17 39° W 18:24:03 10° SSW
KORONAS-FOTON 3.8 18:15:42 15° NNW 18:18:44 56° W 18:22:33 10° S
Cosmos 44 Rocket 3.7 18:16:42 21° NW 18:19:56 49° WSW 18:24:54 10° S
ARIANE 5 DEB (SYLDA) 3.9 18:14:17 14° W 18:22:09 67° S 18:25:57 10° E
Atlas Centaur 2 3.4 18:20:35 10° N 18:23:12 18° NE 18:26:04 10° ENE
Cosmos 2278 Rocket 4.1 18:20:08 10° WSW 18:27:59 - NNW 18:20:27 11° WSW
Meteor 1-28 Rocket 3.2 18:24:18 10° S 18:27:59 58° W 18:31:41 10° NNW
Cosmos 2074 Rocket 4.0 18:22:07 10° SSW 18:28:20 67° W 18:34:30 10° N
NOSS 3-1 (A) 3.3 18:26:32 10° SW 18:31:50 50° WNW 18:37:11 10° N
ARIANE 44L R/B 3.2 18:23:10 13° W 18:32:49 65° SSW 18:35:43 10° ESE
COSMO-SKYMED 1 3.8 18:29:04 10° SSE 18:33:12 44° ENE 18:37:19 10° N
Hubble Space Telescope 2.6 18:32:15 11° WSW 18:35:03 20° SSW 18:38:09 10° SSE
GPS 2-17 Rocket1 3.9 18:32:10 14° W 18:35:30 35° SSW 18:39:30 10° SE
Ariane H10+ 2.7 18:37:27 10° SW 18:38:32 16° S 18:39:47 10° SE
deb Ariane 4.2 18:33:43 10° W 18:38:36 41° SSW 18:41:21 10° ESE
CZ-2C R/B 2.5 18:34:54 10° N 18:39:30 51° WNW 18:44:18 10° SSW
Radarsat Rocket 4.3 18:34:52 10° N 18:40:21 41° WNW 18:45:47 10° SW
Cosmos 1674 4.4 18:41:12 13° WNW 18:42:29 15° W 18:44:37 10° SW
Cosmos 1818 3.5 18:37:35 10° SSW 18:42:54 66° WNW 18:48:14 10° NNE
Lacrosse 5 2.7 18:39:08 10° NNW 18:44:00 51° ENE 18:48:54 10° SE
USA 116 3.3 18:40:53 10° S 18:44:10 53° WSW 18:47:14 10° NNW
Cosmos 1328 4.4 18:41:33 10° N 18:45:27 60° E 18:49:21 10° SSE
Cosmos 1842 Rocket 3.6 18:42:32 10° S 18:46:59 87° W 18:51:27 10° N
Cosmos 1766 Rocket 4.3 18:42:42 10° N 18:47:03 58° E 18:51:27 10° SSE
Cosmos 1400 Rocket 3.6 18:44:30 10° NNW 18:48:04 31° W 18:51:37 10° SSW
MSX 4.0 18:43:43 10° N 18:49:15 52° WNW 18:54:50 10° SSW
CZ-4C R/B 4.3 18:43:08 10° N 18:50:38 42° ENE 18:58:09 10° SE
CSL-04 Rocket 4.4 18:48:26 10° NNE 18:53:36 57° ESE 18:58:46 10° S
Okean 3 Rocket 3.9 18:50:09 10° NNW 18:54:19 45° W 18:58:30 10° SSW
Cosmos 1626 3.1 18:50:51 10° N 18:54:27 51° E 18:58:05 10° SSE
BLOCK DM-SL R/B 3.4 18:49:18 10° W 18:58:04 83° S 19:02:12 10° E
MTI 3.8 18:54:58 10° S 18:58:12 89° W 19:01:25 10° NNW
ARIANE 5 R/B 4.2 19:01:09 10° W 19:45:24 67° N 19:50:01 10° E
